Regional Weather Roundup
Issued by NWS

Home | Current Version | Previous Version | Text Only | Print | Product List | Glossary Off
Versions: 1 2 3 4 5 6 7 8 9 10 11 12 13 14 15 16 17 18 19 20 21 22 23 24 25 26 27 28 29 30 31 32 33 34 35 36 37 38 39 40 41 42 43 44 45 46 47 48 49 50

165
ASUS44 KJAN 010303
RWRMS

MISSISSIPPI HOURLY WEATHER ROUNDUP
NATIONAL WEATHER SERVICE JACKSON MS
1000 PM CDT TUE SEP 30 2014

NOTE: "FAIR: INDICATES FEW OR NO CLOUDS BELOW 12,000 FEET WITH NO
SIGNIFICANT WEATHER AND/OR OBSTRUCTIONS TO VISIBILITY.

MSZ001>002-007>008-010>013-018>021-025>028-034>036-010400-
NORTHWEST MISSISSIPPI

CITY           SKY/WX    TMP DP  RH WIND       PRES   REMARKS
CLARKSDALE     FAIR      70  63  78 CALM      29.88S
CLEVELAND      FAIR      72  63  74 CALM      29.86S
GREENWOOD      PTCLDY    70  66  87 NE3       29.87S
GREENVILLE     CLEAR     72  60  66 E5        29.86R
GRENADA        FAIR      66  63  88 CALM      29.89S
OLIVE BRANCH   CLEAR     70  66  88 CALM      29.90R
OXFORD         FAIR      66  64  94 CALM      29.92R
TUNICA         CLEAR     68  61  77 CALM      29.89S
$$

MSZ003>006-009-014>017-022>024-029>033-037>039-010400-
NORTHEAST MISSISSIPPI

CITY           SKY/WX    TMP DP  RH WIND       PRES   REMARKS
COLUMBUS AFB   CLEAR     67  64  90 CALM      29.90R
CORINTH          N/A     64  63  94 CALM      29.91R
GOLDN TRIANGLE CLEAR     72  59  64 CALM      29.89S
STARKVILLE     FAIR      64  61  88 CALM      29.90S
TUPELO         PTCLDY    68  61  78 CALM      29.90R
$$

MSZ040-058-010400-
CENTRAL MISSISSIPPI

CITY           SKY/WX    TMP DP  RH WIND       PRES   REMARKS
JACKSON INTL   CLEAR     73  66  78 S3        29.88S
JACKSON HAWKNS CLEAR     76  65  68 CALM      29.89R
MERIDIAN KEY   CLEAR     67  63  87 CALM      29.90R
MERIDIAN NAS   CLEAR     68  61  78 CALM      29.90S
RAYMOND        FAIR      72  66  83 E3        29.88R
VICKSBURG      CLEAR     69  67  93 SE3       29.87R
$$

MSZ059>079-010400-
SOUTH MISSISSIPPI

CITY           SKY/WX    TMP DP  RH WIND       PRES   REMARKS
BROOKHAVEN     FAIR      73  70  88 CALM      29.91R
COLUMBIA       FAIR      73  70  88 CALM      29.88S
HATTIESBURG    CLEAR     72  69  90 CALM      29.90S
MCCOMB         CLEAR     74  70  87 SE5       29.90R
NATCHEZ        CLEAR     73  70  88 CALM      29.87S
PINE BELT      CLEAR    N/A N/A N/A CALM      29.91R
$$

MSZ080>082-010400-
COASTAL MISSISSIPPI

CITY           SKY/WX    TMP DP  RH WIND       PRES   REMARKS
BILOXI         CLEAR     78  71  79 E6        29.89R
PASCAGOULA     CLEAR     69  67  93 CALM      29.89S
GULFPORT       CLEAR     76  70  82 SE5       29.88S
$$



USA.gov is the U.S. government's official web portal to all federal, state and local government web resources and services.